DW2270 Weather Reports


Display with metric or nautical units.
time (UTC)temp
F
wind
direction
speed
MPH
gust
MPH
rain 1hr
in
rain 24hr
in
rain mn
in
humidity
%
barometer
mb
20201127091632 69 82 0.0 0.0 0.00 0.00 0.00 91 1014.1
20201127090607 69 82 0.0 0.0 0.00 0.00 0.00 91 1014.3
20201127085609 69 82 0.0 0.0 0.00 0.00 0.00 91 1014.2
20201127084543 69 82 0.0 1.0 0.00 0.00 0.00 91 1014.1
20201127083600 69 82 0.0 0.0 0.00 0.00 0.00 91 1014.1
20201127082624 69 82 0.0 0.0 0.00 0.00 0.00 91 1014.2
20201127081627 69 82 0.0 0.0 0.00 0.01 0.00 90 1014.2
20201127080617 69 82 0.0 0.0 0.00 0.01 0.00 90 1014.4
20201127075611 69 82 0.0 0.0 0.00 0.01 0.00 90 1014.5
20201127074635 69 82 0.0 0.0 0.00 0.01 0.00 90 1014.6
20201127073618 69 82 0.0 0.0 0.00 0.01 0.00 89 1014.2
20201127072617 69 82 0.0 0.0 0.00 0.01 0.00 89 1014.1
20201127071607 69 82 0.0 0.0 0.00 0.01 0.00 89 1014.3
20201127070616 69 82 0.0 0.0 0.00 0.01 0.00 89 1014.4
20201127065616 69 82 0.0 0.0 0.00 0.01 0.00 89 1014.3
20201127064610 69 82 0.0 0.0 0.00 0.01 0.00 89 1014.3
20201127063605 69 82 0.0 0.0 0.00 0.01 0.00 88 1014.2
20201127062558 69 82 0.0 0.0 0.00 0.01 0.00 88 1014.4
20201127061550 69 82 0.0 0.0 0.00 0.01 0.00 88 1014.3
20201127060525 69 82 0.0 0.0 0.00 0.01 0.00 88 1014.3
20201127055519 69 82 0.0 0.0 0.00 0.01 0.01 88 1014.3
20201127054525 69 82 0.0 0.0 0.00 0.01 0.01 88 1014.4
20201127053534 69 67 0.0 0.0 0.00 0.01 0.01 87 1014.4
20201127052527 69 67 0.0 0.0 0.00 0.01 0.01 87 1014.5
20201127051520 69 67 0.0 0.0 0.00 0.01 0.01 87 1014.5
20201127050510 69 78 0.0 1.0 0.00 0.01 0.01 87 1014.5
20201127045426 69 76 0.0 0.0 0.00 0.01 0.01 86 1014.6
20201127044407 69 76 0.0 0.0 0.00 0.01 0.01 86 1014.7
20201127043344 69 75 0.0 2.0 0.00 0.01 0.01 86 1014.8
20201127042408 69 75 0.0 1.0 0.00 0.01 0.01 86 1014.8
20201127041421 69 75 0.0 1.0 0.00 0.01 0.01 85 1014.8
20201127040414 69 75 0.0 0.0 0.00 0.01 0.01 85 1014.7
20201127035433 69 94 0.0 3.0 0.00 0.01 0.01 84 1014.7
20201127034406 69 76 0.0 3.0 0.00 0.01 0.01 84 1014.8
20201127033340 69 355 0.0 0.0 0.00 0.01 0.01 83 1014.9
20201127032352 69 345 0.0 1.0 0.00 0.01 0.01 82 1014.9
20201127031403 69 57 0.0 1.0 0.00 0.01 0.01 82 1015.0
20201127030412 69 55 0.0 1.0 0.00 0.01 0.01 82 1015.2
20201127025358 69 57 0.0 1.0 0.00 0.01 0.01 82 1015.3
20201127024422 69 112 0.0 1.0 0.00 0.01 0.01 81 1015.3
20201127023405 69 113 0.0 2.0 0.00 0.01 0.01 81 1015.3
20201127022358 69 82 0.0 1.0 0.00 0.01 0.01 81 1015.2
20201127021401 69 68 0.0 0.0 0.00 0.01 0.01 81 1015.0
20201127020402 70 321 0.0 2.0 0.00 0.01 0.01 81 1014.9
20201127015404 70 64 0.0 0.0 0.00 0.01 0.01 81 1014.8
20201127014430 70 64 0.0 0.0 0.00 0.01 0.01 81 1014.7
20201127013425 70 64 0.0 1.0 0.00 0.01 0.01 80 1014.7
20201127012435 70 65 0.0 0.0 0.00 0.01 0.01 80 1014.6
20201127011448 70 50 0.0 0.0 0.00 0.01 0.01 80 1014.6
20201127010431 70 50 0.0 0.0 0.00 0.01 0.01 80 1014.5
20201127005437 70 67 0.0 1.0 0.00 0.01 0.01 81 1014.5
20201127004406 70 65 0.0 0.0 0.00 0.01 0.01 81 1014.2
20201127003347 70 65 0.0 0.0 0.00 0.01 0.01 81 1014.0
20201127002352 70 64 0.0 0.0 0.00 0.01 0.01 81 1013.9
20201127001344 70 64 0.0 0.0 0.00 0.01 0.01 81 1013.9
20201127000408 71 64 0.0 0.0 0.00 0.01 0.01 80 1013.8
20201126235413 71 64 0.0 0.0 0.00 0.01 0.01 79 1013.8
20201126234409 71 64 0.0 0.0 0.00 0.01 0.01 79 1013.5
20201126233340 71 64 0.0 0.0 0.00 0.01 0.01 78 1013.5
20201126232329 72 64 0.0 0.0 0.00 0.01 0.01 77 1013.3
20201126231302 72 64 0.0 1.0 0.00 0.01 0.01 76 1013.4
20201126230309 72 66 0.0 1.0 0.00 0.01 0.01 75 1013.4
20201126225251 72 65 0.0 0.0 0.00 0.01 0.01 74 1013.4
20201126224257 73 123 0.0 1.0 0.00 0.01 0.01 74 1013.4
20201126223235 73 123 0.0 2.0 0.00 0.01 0.01 72 1013.3
20201126222202 73 150 0.0 0.0 0.00 0.01 0.01 72 1013.6
20201126221146 73 342 0.0 2.0 0.00 0.01 0.01 71 1013.6
20201126220129 73 132 0.0 0.0 0.00 0.01 0.01 71 1013.5
20201126215116 73 316 0.0 2.0 0.00 0.01 0.01 71 1013.7
20201126214138 73 96 0.0 1.0 0.00 0.01 0.01 72 1013.6
20201126213131 73 96 0.0 2.0 0.00 0.01 0.01 70 1013.9
20201126212121 73 71 0.0 2.0 0.00 0.01 0.01 71 1013.9
20201126211104 73 113 0.0 2.0 0.00 0.01 0.01 70 1014.0
20201126210102 73 55 0.0 4.0 0.00 0.01 0.01 70 1013.9
20201126205037 73 159 0.0 3.0 0.00 0.01 0.01 69 1014.1
20201126204038 73 349 0.0 3.0 0.00 0.01 0.01 68 1014.0
20201126203010 73 113 0.0 3.0 0.00 0.01 0.01 68 1014.1
20201126202032 72 19 0.0 4.0 0.00 0.01 0.01 68 1014.0
20201126201002 72 100 0.0 5.0 0.00 0.01 0.01 68 1014.2
20201126195944 72 88 0.0 5.0 0.00 0.01 0.01 68 1014.4
20201126194912 72 86 0.0 2.0 0.00 0.01 0.01 68 1014.4
20201126193902 72 144 0.0 3.0 0.00 0.01 0.01 67 1014.5
20201126192849 71 101 0.0 3.0 0.00 0.01 0.01 68 1014.7
20201126191814 71 78 0.0 2.0 0.00 0.01 0.01 68 1014.9
20201126190827 71 78 0.0 2.0 0.00 0.01 0.01 66 1014.9
20201126185807 72 78 0.0 5.0 0.00 0.01 0.01 65 1015.2
20201126184810 71 37 1.0 5.0 0.00 0.01 0.01 66 1015.4
20201126183808 71 110 0.0 3.0 0.00 0.01 0.01 65 1015.5
20201126182816 70 100 0.0 4.0 0.00 0.01 0.01 65 1015.6
20201126181812 69 65 0.0 4.0 0.00 0.01 0.01 65 1015.7
20201126180745 69 140 0.0 4.0 0.00 0.01 0.01 66 1016.1
20201126175721 68 5 0.0 3.0 0.00 0.01 0.01 67 1016.3
20201126174745 67 97 0.0 3.0 0.00 0.01 0.01 68 1016.6
20201126173743 67 337 0.0 2.0 0.00 0.01 0.01 69 1016.9
20201126172705 66 49 0.0 1.0 0.00 0.01 0.01 70 1017.3
20201126171642 65 65 0.0 1.0 0.00 0.01 0.01 70 1017.4
20201126170659 65 33 0.0 2.0 0.00 0.01 0.01 70 1017.3
20201126165652 65 32 0.0 2.0 0.00 0.01 0.01 70 1017.6
20201126164632 65 338 0.0 3.0 0.00 0.01 0.01 70 1017.8
20201126163633 64 128 0.0 3.0 0.00 0.01 0.01 70 1017.9
20201126162636 63 259 0.0 2.0 0.00 0.01 0.01 71 1018.0
20201126161611 63 36 0.0 1.0 0.00 0.01 0.01 72 1018.0
20201126160634 62 67 0.0 1.0 0.00 0.01 0.01 73 1017.9
20201126155651 61 16 0.0 1.0 0.00 0.01 0.01 75 1018.0
20201126154722 60 16 0.0 2.0 0.00 0.01 0.01 76 1018.0
20201126153631 59 340 0.0 2.0 0.00 0.01 0.01 77 1018.1
20201126152641 59 61 0.0 3.0 0.00 0.01 0.01 78 1018.1
20201126151628 58 71 0.0 4.0 0.00 0.01 0.01 80 1018.0
20201126150557 56 0 0.0 4.0 0.00 0.01 0.01 82 1017.9
20201126145519 56 0 0.0 3.0 0.00 0.01 0.01 85 1017.9
20201126144518 55 346 0.0 1.0 0.00 0.01 0.01 88 1018.0
20201126143437 54 0 0.0 1.0 0.00 0.01 0.01 90 1018.1
20201126142444 53 0 0.0 3.0 0.00 0.01 0.01 92 1018.2
20201126141449 52 0 0.0 2.0 0.00 0.01 0.01 93 1017.9
20201126140428 51 0 0.0 2.0 0.00 0.01 0.01 93 1017.9
20201126135425 51 0 0.0 1.0 0.00 0.01 0.01 94 1017.9
20201126134404 50 350 0.0 0.0 0.00 0.01 0.01 94 1017.8
20201126133405 50 350 0.0 0.0 0.00 0.01 0.01 94 1017.8
20201126132419 50 350 0.0 0.0 0.00 0.01 0.01 94 1017.7
20201126131422 50 350 0.0 2.0 0.00 0.01 0.01 94 1017.6
20201126130407 50 199 0.0 0.0 0.00 0.01 0.01 94 1017.5
20201126125419 50 199 0.0 0.0 0.00 0.01 0.01 94 1017.3
20201126124354 50 200 0.0 0.0 0.00 0.01 0.01 94 1017.1
20201126123353 50 200 0.0 0.0 0.00 0.01 0.01 94 1017.2
20201126122339 50 200 0.0 0.0 0.00 0.01 0.01 94 1017.2
20201126121317 50 200 0.0 0.0 0.00 0.01 0.01 94 1016.9
20201126120307 49 201 0.0 1.0 0.00 0.01 0.01 94 1016.6
20201126115334 48 201 0.0 0.0 0.00 0.01 0.01 94 1016.7
20201126114340 48 201 0.0 0.0 0.00 0.01 0.01 94 1016.7
20201126113323 47 201 0.0 0.0 0.00 0.01 0.01 94 1016.7
20201126112319 47 201 0.0 0.0 0.00 0.01 0.01 93 1016.6
20201126111326 47 201 0.0 0.0 0.00 0.01 0.01 93 1016.7
20201126110317 47 201 0.0 0.0 0.00 0.01 0.01 93 1016.7
20201126105246 47 201 0.0 0.0 0.00 0.01 0.01 93 1016.7
20201126104224 47 200 0.0 0.0 0.00 0.01 0.01 93 1016.7
20201126103222 47 201 0.0 0.0 0.00 0.01 0.01 93 1016.7
20201126102159 47 201 0.0 0.0 0.00 0.02 0.01 93 1016.7
20201126101222 47 201 0.0 0.0 0.00 0.04 0.01 93 1016.7
20201126100200 47 201 0.0 0.0 0.00 0.07 0.01 93 1016.7
20201126095135 47 201 0.0 0.0 0.00 0.07 0.01 93 1016.7
20201126094128 47 201 0.0 0.0 0.00 0.14 0.01 93 1016.7
20201126093136 48 201 0.0 0.0 0.00 0.23 0.01 93 1016.6
20201126092134 48 200 0.0 0.0 0.00 0.24 0.01 92 1016.6